Easton, MD

9:23 PM EST on November 21, 2019 (GMT -0500)
Easton / Newnam

Weather History for KESN - August, 2019

Change the Weather History Date:

Friday, August 2, 2019

  Actual Average Record
Temperature  
Mean Temperature 77 °F -  
Max Temperature 84 °F 87 °F 95 °F (2006)
Min Temperature 70 °F 68 °F 58 °F (1976)
Cooling Degree Days 12    
Growing Degree Days 27 (Base 50)    
Moisture  
Dew Point 70 °F    
Average Humidity 88    
Maximum Humidity 95    
Minimum Humidity 62    
Precipitation  
Precipitation 0.00 in - - ()
Sea Level Pressure  
Sea Level Pressure 30.13 in    
Wind  
Wind Speed 1 mph (East)    
Max Wind Speed 7 mph    
Max Gust Speed -    
Visibility 10 miles    
Events Rain , Thunderstorm    
Averages and records for this station are not official NWS values.
T = Trace of Precipitation, MM = Missing Value Source: NWS Daily Summary

Daily Weather History Graph

Daily Weather History Graph

Search for Another Location

Airport or City:

Astronomy

Aug. 02, 2019 Rise Set
Actual Time 6:06 AM EDT 8:14 PM EDT
Civil Twilight 5:36 AM EDT 8:43 PM EDT
Nautical Twilight 5:00 AM EDT 9:19 PM EDT
Astronomical Twilight 4:20 AM EDT 9:59 PM EDT
Moon 7:41 AM EDT (8/2) 9:42 PM EDT (8/2)
Length of Visible Light 15h 07m
Length of Day
14h 08m
Waxing Crescent, 4% of the Moon is Illuminated
Aug 2
Waxing Crescent
Aug 7
First Quarter
Aug 15
Full
Aug 23
Last Quarter
Aug 30
New

Hourly Weather History & Observations

Time (EDT) Temp. Heat Index Dew Point Humidity Pressure Visibility Wind Dir Wind Speed Gust Speed Precip Events Conditions
12:18 AM 72.5 °F - 67.6 °F 85% 30.13 in 10.0 mi Calm Calm - N/A   Clear
12:58 AM 72.1 °F - 68.0 °F 87% 30.13 in 10.0 mi Calm Calm - N/A   Clear
1:18 AM 71.8 °F - 68.0 °F 88% 30.13 in 10.0 mi Calm Calm - N/A   Clear
1:38 AM 71.8 °F - 68.4 °F 89% 30.13 in 10.0 mi Calm Calm - N/A   Clear
1:58 AM 71.6 °F - 68.4 °F 89% 30.12 in 10.0 mi Calm Calm - N/A   Clear
2:18 AM 71.8 °F - 68.5 °F 89% 30.13 in 10.0 mi Calm Calm - N/A   Clear
2:38 AM 71.6 °F - 68.5 °F 90% 30.14 in 10.0 mi Calm Calm - N/A   Clear
2:58 AM 70.9 °F - 68.4 °F 92% 30.13 in 10.0 mi Calm Calm - N/A   Clear
3:18 AM 70.9 °F - 68.5 °F 92% 30.13 in 10.0 mi Calm Calm - N/A   Clear
3:38 AM 70.7 °F - 68.4 °F 92% 30.12 in 10.0 mi ENE 3.5 mph - N/A   Clear
4:18 AM 70.7 °F - 68.4 °F 92% 30.13 in 10.0 mi Calm Calm - N/A   Clear
4:38 AM 70.9 °F - 68.2 °F 91% 30.12 in 10.0 mi NE 3.5 mph - N/A   Clear
4:58 AM 71.1 °F - 68.2 °F 91% 30.13 in 10.0 mi Calm Calm - N/A   Clear
5:18 AM 71.1 °F - 68.2 °F 91% 30.13 in 10.0 mi Calm Calm - N/A   Clear
5:38 AM 71.4 °F - 68.5 °F 91% 30.13 in 10.0 mi Calm Calm - N/A   Scattered Clouds
5:41 AM 71.6 °F - 68.7 °F 91% 30.13 in 10.0 mi Calm Calm - N/A   Scattered Clouds
6:00 AM 71.6 °F - 69.8 °F 94% 30.14 in 10.0 mi Calm Calm - N/A   Scattered Clouds
6:49 AM 71.6 °F - 69.8 °F 94% 30.13 in 10.0 mi Calm Calm - N/A Rain Light Rain
7:49 AM 71.6 °F - 69.8 °F 94% 30.14 in 10.0 mi East 4.6 mph - N/A   Scattered Clouds
8:50 AM 73.4 °F - 71.6 °F 94% 30.17 in 7.0 mi Calm Calm - N/A Rain Rain
9:54 AM 73.4 °F - 71.6 °F 94% 30.17 in 10.0 mi Calm Calm - N/A Rain Light Rain
10:51 AM 75.2 °F - 71.6 °F 89% 30.15 in 10.0 mi Calm Calm - N/A   Scattered Clouds
11:46 AM 78.8 °F - 73.4 °F 83% 30.16 in 10.0 mi North 4.6 mph - N/A   Scattered Clouds
12:48 PM 80.6 °F 84.6 °F 71.6 °F 74% 30.16 in 10.0 mi Calm Calm - N/A   Scattered Clouds
1:50 PM 82.4 °F 88.2 °F 73.4 °F 74% 30.16 in 10.0 mi ESE 5.8 mph - N/A   Scattered Clouds
2:50 PM 84.2 °F 88.4 °F 69.8 °F 62% 30.14 in 10.0 mi Calm Calm - N/A   Scattered Clouds
3:50 PM 84.2 °F 90.9 °F 73.4 °F 70% 30.12 in 10.0 mi East 6.9 mph - N/A   Scattered Clouds
4:50 PM 82.4 °F 87.2 °F 71.6 °F 70% 30.11 in 10.0 mi ENE 6.9 mph - N/A   Mostly Cloudy
5:50 PM 82.4 °F 88.2 °F 73.4 °F 74% 30.11 in 10.0 mi NE 5.8 mph - N/A   Mostly Cloudy
6:45 PM 78.8 °F - 71.6 °F 78% 30.12 in 7.0 mi WSW 5.8 mph - N/A Rain , Thunderstorm Thunderstorms and Rain
7:40 PM 73.4 °F - 71.6 °F 94% 30.11 in 10.0 mi Calm Calm - N/A Rain Light Rain
7:45 PM 73.4 °F - 71.6 °F 94% 30.11 in 10.0 mi Calm Calm - N/A Rain Light Rain
8:45 PM 73.4 °F - 71.6 °F 94% 30.12 in 10.0 mi East 3.5 mph - N/A   Scattered Clouds
9:45 PM 73.4 °F - 71.6 °F 94% 30.13 in 10.0 mi Calm Calm - N/A   Scattered Clouds
10:18 PM 72.5 °F - 70.9 °F 95% 30.13 in 10.0 mi East 4.6 mph - N/A   Scattered Clouds
10:38 PM 72.1 °F - 70.0 °F 93% 30.13 in 10.0 mi ESE 4.6 mph - N/A   Scattered Clouds
10:58 PM 72.9 °F - 70.3 °F 92% 30.13 in 10.0 mi ESE 4.6 mph - N/A   Clear
11:18 PM 72.7 °F - 70.7 °F 93% 30.13 in 10.0 mi ESE 4.6 mph - N/A   Clear
11:38 PM 72.5 °F - 70.7 °F 94% 30.12 in 10.0 mi ESE 4.6 mph - N/A   Clear
11:58 PM 72.5 °F - 70.7 °F 94% 30.12 in 10.0 mi Calm Calm - N/A   Clear